Showing default

RIDESHARE ADAPTER, 47435

Orbit data source: Space-Track

RIDESHARE ADAPTER, 47435 is a payload satellite owned by SpaceX (US) in SSO that was launched on Sun, 24 Jan 2021 UTC via an FALCON 9 launch vehicle from the Air Force Eastern Test Range (AFETR). Payload-class satellites include a variety of spacecraft equipped with specific instruments for various scientific and technological missions. These include communications satellites like Starlink; space stations such as the ISS; scientific satellites like the Hubble; Earth observation satellites from companies like Planet Labs, Umbra, and HawkEye 360; GPS; miniature CubeSats for education and research; and military/defense satellites.

Loading next visibility...
Identifier
47435, 2021-006Y
Orbit
SSO
Country
Flag of USUS
Related business
Manufacturer
SpaceX
Mission
Commercial Technology
Bus & Motor
ESPA, Unknown motor
Mass
~500 kg wet, ~500 kg dry
Launch date (UTC)
2021-01-24 (5 years ago)
Launch vehicle
FALCON 9
Launch site
Air Force Eastern Test Range (AFETR)
Object type
Payload
Rocket body
Debris
Shape & HBR
Cyl, Unknown HBR
Radar Cross Section
1.806 m², Large (>1 m²)

Expand to show TLE details & history
Last TLE update: 15 hours ago

TLE from 15 hours ago
0 RIDESHARE ADAPTER
1 47435U 21006Y   25287.75689877  .00013882  00000-0  36814-3 0  9990
2 47435  97.2620 338.4299 0007551 342.5391  17.5593 15.38402487262310
Epoch: 2025-10-14T18:09Z
TLE epoch observation values (Epoch: 2025-10-14T18:09:56.053Z)
Latitude
-0.00011°
Longitude
42.40561°
Altitude
449.035 km
Speed
7.646 km/s
True Right ascension
22h 33m 43s
True Declination
0° 00' 00"
Sunlit
Object was in full shadow at epoch
Visualization orbit readout
Latitude
Unknown
Longitude
Unknown
Altitude
Unknown
Speed
Unknown
Apparent Right ascension
Unknown
Apparent Declination
Unknown
Sunlit
N/A
Visualization observer readout
Local Sidereal Time
03:21:35
Azimuth
Unknown
Elevation
Unknown
Doppler factor
Unknown
Orbital elements
Apogee altitude
452.922 km
Perigee altitude
442.614 km
Semi-major axis
6,825.905 km
Eccentricity
0.00076
Inclination
97.262°
RAAN
338.4299°
Arg. of periapsis
342.5391°
True anomaly
17.58543°
Mean anomaly
17.5593°
Eccentric anomaly
17.57236°
Mean motion
3.8486 °/min
Orbital period
93.54 mins
BSTAR
0.00036814
Loading maneuver chart data...
Computing Atmospheric mass density...

Documentation

Showing up to 5 results
|